Weather History for Madison, SD

Change the Weather History Date:

Saturday, February 16, 2013

  Actual Average Record
Temperature  
Mean Temperature 16 °F -  
Max Temperature 26 °F 24 °F 41 °F (2011)
Min Temperature 5 °F 6 °F -2 °F (2014)
Degree Days  
Heating Degree Days 50    
Moisture  
Dew Point 17 °F    
Average Humidity 100    
Maximum Humidity 100    
Minimum Humidity 100    
Precipitation  
Precipitation 0.00 in - - ()
Sea Level Pressure  
Sea Level Pressure 30.04 in    
Wind  
Wind Speed 6 mph (South)    
Max Wind Speed 12 mph    
Max Gust Speed -    
Visibility 10 miles    
Events Fog , Snow    
Averages and records for this station are not official NWS values.
T = Trace of Precipitation, MM = Missing Value Source: NWS Daily Summary

Daily Weather History Graph

Daily Weather History Graph

Search for Another Location

Airport:

Trip Planner

Search our weather history database for the weather conditions in past years. The results will help you decide how hot, cold, wet, or windy it might be!

Date:

Astronomy

Feb. 16, 2013 Rise Set
Actual Time 7:25 AM CST 5:59 PM CST
Civil Twilight 6:56 AM CST 6:29 PM CST
Nautical Twilight 6:22 AM CST 7:03 PM CST
Astronomical Twilight 5:48 AM CST 7:36 PM CST
Moon 10:23 AM CST (2/16) 12:15 AM CST (2/16)
Length of Visible Light 11h 33m
Length of Day
10h 34m
Waxing Crescent, 39% of the Moon is Illuminated
Feb 16
Waxing Crescent
Feb 17
First Quarter
Feb 25
Full
Mar 4
Last Quarter
Mar 11
New

Hourly Weather History & Observations

Time (CST) Temp. Windchill Dew Point Humidity Pressure Visibility Wind Dir Wind Speed Gust Speed Precip Events Conditions
12:00 AM 6.8 °F -3.5 °F 6.8 °F 100% 30.22 in 10.0 mi SW 5.8 mph - N/A   Overcast
12:20 AM 6.8 °F -2.0 °F 6.8 °F 100% 30.22 in 10.0 mi WSW 4.6 mph - N/A   Mostly Cloudy
12:40 AM 8.6 °F -1.3 °F 8.6 °F 100% 30.21 in 10.0 mi West 5.8 mph - N/A   Overcast
1:00 AM 6.8 °F -4.8 °F 6.8 °F 100% 30.20 in 7.0 mi WSW 6.9 mph - N/A   Overcast
1:20 AM 6.8 °F -2.0 °F 6.8 °F 100% 30.20 in 5.0 mi WSW 4.6 mph - N/A   Overcast
1:40 AM 5.0 °F -5.6 °F 5.0 °F 100% 30.19 in 10.0 mi SW 5.8 mph - N/A   Overcast
2:00 AM 6.8 °F -3.5 °F 6.8 °F 100% 30.18 in 1.8 mi SW 5.8 mph - N/A   Overcast
2:20 AM 6.8 °F -2.0 °F 6.8 °F 100% 30.17 in 1.8 mi SW 4.6 mph - N/A   Overcast
2:40 AM 6.8 °F -2.0 °F 6.8 °F 100% 30.16 in 0.5 mi SW 4.6 mph - N/A Fog Light Freezing Fog
3:00 AM 6.8 °F -3.5 °F 6.8 °F 100% 30.15 in 10.0 mi SW 5.8 mph - N/A   Mostly Cloudy
3:20 AM 6.8 °F -0.1 °F 6.8 °F 100% 30.14 in 10.0 mi SW 3.5 mph - N/A   Overcast
3:40 AM 8.6 °F 0.1 °F 8.6 °F 100% 30.14 in 10.0 mi SSW 4.6 mph - N/A   Overcast
4:00 AM 8.6 °F -2.6 °F 8.6 °F 100% 30.13 in 10.0 mi SW 6.9 mph - N/A   Overcast
4:20 AM 10.4 °F -0.4 °F 10.4 °F 100% 30.12 in 10.0 mi SW 6.9 mph - N/A   Overcast
4:40 AM 10.4 °F 0.8 °F 10.4 °F 100% 30.11 in 10.0 mi SSW 5.8 mph - N/A Snow Light Snow
5:00 AM 10.4 °F -1.5 °F 10.4 °F 100% 30.11 in 10.0 mi SW 8.1 mph - N/A   Overcast
5:20 AM 10.4 °F -0.4 °F 10.4 °F 100% 30.10 in 10.0 mi SSW 6.9 mph - N/A Snow Light Snow
5:40 AM 10.4 °F 4.0 °F 10.4 °F 100% 30.08 in 10.0 mi SSW 3.5 mph - N/A   Overcast
6:00 AM 10.4 °F 0.8 °F 10.4 °F 100% 30.08 in 10.0 mi SSE 5.8 mph - N/A   Overcast
6:20 AM 10.4 °F -0.4 °F 10.4 °F 100% 30.07 in 10.0 mi SSE 6.9 mph - N/A Snow Light Snow
6:40 AM 8.6 °F 0.1 °F 8.6 °F 100% 30.07 in 10.0 mi South 4.6 mph - N/A   Overcast
7:00 AM 8.6 °F -2.6 °F 8.6 °F 100% 30.06 in 10.0 mi SSE 6.9 mph - N/A   Overcast
7:20 AM 8.6 °F -1.3 °F 8.6 °F 100% 30.06 in 10.0 mi SSE 5.8 mph - N/A   Overcast
7:40 AM 8.6 °F -4.7 °F 8.6 °F 100% 30.05 in 10.0 mi SSE 9.2 mph - N/A   Overcast
8:00 AM 8.6 °F -3.7 °F 8.6 °F 100% 30.05 in 10.0 mi SSE 8.1 mph - N/A Snow Light Snow
8:20 AM 10.4 °F -0.4 °F 10.4 °F 100% 30.05 in 10.0 mi SE 6.9 mph - N/A   Mostly Cloudy
8:40 AM 10.4 °F -4.1 °F 10.4 °F 100% 30.04 in 10.0 mi SSE 11.5 mph - N/A   Scattered Clouds
9:00 AM 10.4 °F -2.4 °F 10.4 °F 100% 30.04 in 10.0 mi SSE 9.2 mph - N/A   Mostly Cloudy
9:20 AM 12.2 °F 0.7 °F 12.2 °F 100% 30.03 in 10.0 mi SSE 8.1 mph - N/A   Partly Cloudy
9:40 AM 14.0 °F 1.2 °F 14.0 °F 100% 30.04 in 10.0 mi SSE 10.4 mph - N/A   Clear
10:00 AM 14.0 °F 2.9 °F 14.0 °F 100% 30.04 in 10.0 mi SSE 8.1 mph - N/A Snow Light Snow
10:20 AM 14.0 °F 2.9 °F 14.0 °F 100% 30.03 in 10.0 mi SSE 8.1 mph - N/A   Clear
10:40 AM 15.8 °F 3.4 °F 15.8 °F 100% 30.03 in 10.0 mi SSE 10.4 mph - N/A   Partly Cloudy
11:00 AM 15.8 °F 4.2 °F 15.8 °F 100% 30.03 in 10.0 mi SSE 9.2 mph - N/A   Mostly Cloudy
11:20 AM 17.6 °F 5.7 °F 17.6 °F 100% 30.03 in 10.0 mi SSE 10.4 mph - N/A   Mostly Cloudy
11:40 AM 17.6 °F 7.3 °F 17.6 °F 100% 30.03 in 10.0 mi SSE 8.1 mph - N/A   Partly Cloudy
12:00 PM 17.6 °F 6.4 °F 17.6 °F 100% 30.02 in 10.0 mi SE 9.2 mph - N/A   Clear
12:20 PM 19.4 °F 8.6 °F 19.4 °F 100% 30.02 in 10.0 mi SSE 9.2 mph - N/A   Clear
12:40 PM 19.4 °F 7.9 °F 19.4 °F 100% 30.01 in 10.0 mi SE 10.4 mph - N/A   Clear
1:00 PM 21.2 °F 9.5 °F 21.2 °F 100% 30.00 in 10.0 mi SSE 11.5 mph - N/A   Clear
1:20 PM 23.0 °F 13.1 °F 23.0 °F 100% 29.99 in 10.0 mi SSE 9.2 mph - N/A   Clear
1:40 PM 23.0 °F 13.1 °F 23.0 °F 100% 29.99 in 10.0 mi SSE 9.2 mph - N/A   Clear
2:00 PM 23.0 °F 13.9 °F 23.0 °F 100% 29.99 in 10.0 mi SSE 8.1 mph - N/A   Clear
2:20 PM 24.8 °F 16.1 °F 24.8 °F 100% 29.99 in 10.0 mi SSE 8.1 mph - N/A   Clear
2:40 PM 24.8 °F 15.3 °F 24.8 °F 100% 29.98 in 10.0 mi SSE 9.2 mph - N/A   Clear
3:00 PM 24.8 °F 16.1 °F 24.8 °F 100% 29.98 in 10.0 mi SSE 8.1 mph - N/A   Partly Cloudy
3:20 PM 24.8 °F 16.1 °F 24.8 °F 100% 29.98 in 10.0 mi SSE 8.1 mph - N/A   Mostly Cloudy
3:40 PM 24.8 °F 16.1 °F 24.8 °F 100% 29.98 in 10.0 mi SSE 8.1 mph - N/A   Overcast
4:00 PM 24.8 °F 17.9 °F 24.8 °F 100% 29.97 in 10.0 mi SSE 5.8 mph - N/A   Mostly Cloudy
4:20 PM 26.6 °F 21.2 °F 26.6 °F 100% 29.98 in 10.0 mi SSE 4.6 mph - N/A   Mostly Cloudy
4:40 PM 24.8 °F 17.9 °F 24.8 °F 100% 29.98 in 10.0 mi SSE 5.8 mph - N/A   Partly Cloudy
5:00 PM 24.8 °F 19.1 °F 24.8 °F 100% 29.98 in 10.0 mi SSE 4.6 mph - N/A   Clear
5:20 PM 24.8 °F 17.9 °F 24.8 °F 100% 29.97 in 10.0 mi SSE 5.8 mph - N/A   Clear
5:40 PM 24.8 °F 20.5 °F 24.8 °F 100% 29.97 in 10.0 mi SSE 3.5 mph - N/A   Mostly Cloudy
6:00 PM 23.0 °F 17.0 °F 23.0 °F 100% 29.97 in 10.0 mi ESE 4.6 mph - N/A   Overcast
6:20 PM 23.0 °F 17.0 °F 23.0 °F 100% 29.97 in 10.0 mi ESE 4.6 mph - N/A   Overcast
6:40 PM 21.2 °F - 21.2 °F 100% 29.97 in 10.0 mi North - - N/A   Mostly Cloudy
7:00 PM 23.0 °F 18.4 °F 23.0 °F 100% 29.97 in 10.0 mi SSE 3.5 mph - N/A   Mostly Cloudy
7:20 PM 19.4 °F 12.8 °F 19.4 °F 100% 29.96 in 10.0 mi SE 4.6 mph - N/A   Partly Cloudy
7:40 PM 21.2 °F 14.9 °F 21.2 °F 100% 29.97 in 10.0 mi SSE 4.6 mph - N/A   Mostly Cloudy
8:00 PM 21.2 °F 14.9 °F 21.2 °F 100% 29.96 in 10.0 mi SSE 4.6 mph - N/A   Overcast
8:20 PM 24.8 °F 16.9 °F 24.8 °F 100% 29.96 in 10.0 mi South 6.9 mph - N/A   Overcast
8:40 PM 23.0 °F 17.0 °F 23.0 °F 100% 29.96 in 10.0 mi South 4.6 mph - N/A   Overcast
9:00 PM 23.0 °F - 23.0 °F 100% 29.96 in 10.0 mi Calm Calm - N/A   Overcast
9:20 PM 23.0 °F - 23.0 °F 100% 29.96 in 10.0 mi Calm Calm - N/A   Overcast
9:40 PM 23.0 °F - 23.0 °F 100% 29.96 in 10.0 mi Calm Calm - N/A   Overcast
10:00 PM 23.0 °F - 23.0 °F 100% 29.96 in 10.0 mi Calm Calm - N/A   Overcast
10:20 PM 23.0 °F 18.4 °F 23.0 °F 100% 29.96 in 10.0 mi East 3.5 mph - N/A   Overcast
10:40 PM 23.0 °F 17.0 °F 23.0 °F 100% 29.96 in 10.0 mi ESE 4.6 mph - N/A   Overcast
11:00 PM 23.0 °F - 23.0 °F 100% 29.96 in 10.0 mi Calm Calm - N/A   Overcast
11:20 PM 24.8 °F 17.9 °F 24.8 °F 100% 29.95 in 10.0 mi SSE 5.8 mph - N/A   Overcast
11:40 PM 24.8 °F 17.9 °F 24.8 °F 100% 29.93 in 10.0 mi South 5.8 mph - N/A   Overcast